Regional Weather Roundup
Issued by NWS

Home | Current Version | Previous Version | Graphics & Text | Print | Product List | Glossary On
Versions: 1 2 3 4 5 6 7 8 9 10 11 12 13 14 15 16 17 18 19 20 21 22 23 24 25 26 27 28 29 30 31 32 33 34 35 36 37 38 39 40 41 42 43 44 45 46 47 48 49 50
000
ASUS44 KMEG 221800
RWRTN
TENNESSEE HOURLY STATE WEATHER ROUNDUP
NATIONAL WEATHER SERVICE MEMPHIS TN
1200 PM CST SAT NOV 22 2014

TNZ002-004-019-021-049-052-054-088>092-221900-
WEST TENNESSEE

CITY           SKY/WX    TMP DP  RH WIND       PRES   REMARKS
MEMPHIS INTL   PTSUNNY   65  40  39 S17G23    30.18F
NWS MEMPHIS      N/A     64 N/A N/A MISG        N/A
JACKSON        MOSUNNY   66  36  32 S13G24    30.19F
DYERSBURG      PTSUNNY   66  36  32 S15G21    30.17F
UNION CITY     MOSUNNY   63  39  42 S14       30.16F
PARIS          SUNNY     61  37  41 S12       30.20F
LEXINGTON      MOSUNNY   64  34  32 S15       30.20F
SAVANNAH       MOSUNNY   63  34  34 S15       30.22F
$$

TNZ008-025-027-028-033-062-065-066-221900-
NORTH MIDDLE TENNESSEE

CITY           SKY/WX    TMP DP  RH WIND       PRES   REMARKS
NASHVILLE      PTSUNNY   62  32  32 S16G28    30.26F
CLARKSVILLE    LGT RAIN  62  35  36 S15       30.22F
COOKEVILLE     SUNNY     63  32  31 S13       30.28F
CROSSVILLE     SUNNY     57  28  33 S13G23    30.31F
$$

TNZ061-075-076-078-094-096-097-221900-
SOUTH MIDDLE TENNESSEE

CITY           SKY/WX    TMP DP  RH WIND       PRES   REMARKS
FAYETTEVILLE   SUNNY     59  32  36 N18G36    30.28F
TULLAHOMA      SUNNY     61  28  29 S14       30.29F
WINCHESTER     SUNNY     61  32  33 S14       30.29F
SHELBYVILLE    MOSUNNY   63  34  34 S15       30.28F
$$

TNZ017-018-042-046-047-221900-
NORTHEAST TENNESSEE

CITY           SKY/WX    TMP DP  RH WIND       PRES   REMARKS
TRI CITIES     PTSUNNY   53  22  29 CALM      30.34F
ELIZABETHTON   CLEAR     54  19  26 CALM      30.33F
$$

TNZ012-013-036-069-073-074-221900-
CENTRAL EAST TENNESSEE

CITY           SKY/WX    TMP DP  RH WIND       PRES   REMARKS
KNOXVILLE      PTSUNNY   52  25  35 CALM      30.33F
OAK RIDGE      SUNNY     56  27  32 VRB5      30.35F
GATLINBURG     CLEAR     52  23  32 CALM      30.34F
$$

TNZ083-085-099-221900-
SOUTHEAST TENNESSEE

CITY           SKY/WX    TMP DP  RH WIND       PRES   REMARKS
CHATTANOOGA    PTSUNNY   59  28  30 S9        30.34F
$$

SKY/WX REPORTED AS FAIR MEANS FEW OR NO CLOUDS BELOW
12 THOUSAND FEET.



USA.gov is the U.S. government's official web portal to all federal, state and local government web resources and services.